Voltar ao catálogo

STARLINK-5610

AtivoComunicaçõesVLEO
NORAD 57244·PAYLOAD·🇺🇸 United States

Lançado Jul 7, 2023 de Vandenberg Space Force Base

Loading…

Próximas Passagens (próximas 24 horas)

TLE

AtualizadoSource: CelesTrak SupGP

Época: Sep 14, 2026, 21:51 UTC

1 57244C 23094AC  26257.91090278  .00019611  00000+0  71007-3 0  2570
2 57244  43.0040  30.7843 0002226 275.5978 118.8860 15.27578078    18

Acompanhe STARLINK-5610 em tempo real com AllMySat

Download on the App Store